Miscellaneous Local Product
Issued by NWS Hastings, NE

Home | Current Version | Previous Version | Graphics & Text | Print | Product List | Glossary On
Versions: 1 2 3 4 5 6 7 8 9 10 11 12 13 14 15 16 17 18 19 20 21 22 23 24 25 26 27 28 29 30 31 32 33 34 35 36 37 38 39 40 41 42 43 44 45 46 47 48 49 50
000
AXUS43 KGID 221902
MISGRI

GID CWA HOURLY WEATHER ROUNDUP
NATIONAL WEATHER SERVICE HASTINGS NE
200 PM CDT TUE APR 22 2014

NOTE: "FAIR" INDICATES FEW OR NO CLOUDS BELOW 12,000 FEET WITH NO
SIGNIFICANT WEATHER AND/OR OBSTRUCTIONS TO VISIBILITY.

...SOUTH CENTRAL NEBRASKA...

CITY           SKY/WX    TMP DP  RH WIND       PRES   REMARKS
GRAND ISLAND   CLOUDY    67  30  25 S20G25    30.05F
HASTINGS       PTSUNNY   66  30  26 S15G22    30.04F
KEARNEY        CLOUDY    66  36  32 SE21G28   30.03F
ORD            MOSUNNY   67  31  26 S21G29    30.00F
YORK           MOSUNNY   66  30  26 S13G20    30.07F
AURORA         PTSUNNY   68  31  25 SE14G21   30.06F
LEXINGTON      SUNNY     71  32  24 S30       29.97F
HOLDREGE       PTSUNNY   69  32  25 S18G31    30.01F
HEBRON         SUNNY     70  28  21 SE9G17    30.07F

...NEBRASKA PANHANDLE...

CITY           SKY/WX    TMP DP  RH WIND       PRES   REMARKS
CHADRON        CLOUDY    75  45  34 S20       29.76F
ALLIANCE       PTSUNNY   75  41  29 S24G30    29.83F
SCOTTSBLUFF    CLOUDY    76  43  30 S14       29.81F
SIDNEY         CLOUDY    75  43  31 S18       29.86F

...WESTERN AND NORTH CENTRAL NEBRASKA...

CITY           SKY/WX    TMP DP  RH WIND       PRES   REMARKS
VALENTINE      SUNNY     74  30  19 S30G36    29.86F
AINSWORTH      SUNNY     71  31  22 S26G33    29.91F
ONEILL         CLOUDY    66  24  20 SE22G29   29.99F
BROKEN BOW     MOSUNNY   68  31  25 S23G35    29.97F
IMPERIAL       PTSUNNY   74  34  23 S26G35    29.89F
NORTH PLATTE   MOSUNNY   74  31  20 S25G36    29.92F
MCCOOK         MOSUNNY   71  34  25 S28G39    29.96F

...EASTERN NEBRASKA...

CITY           SKY/WX    TMP DP  RH WIND       PRES   REMARKS
NORFOLK        PTSUNNY   66  28  24 SE13G22   30.05F
SO SIOUX CITY  SUNNY     65  31  28 MISG      30.09F
TEKAMAH        SUNNY     66  29  24 E6        30.09F
COLUMBUS       SUNNY     66  34  30 SE13      30.08F
ALBION         PTSUNNY   67  28  23 S15       30.04F
OMAHA EPPLEY   MOSUNNY   64  31  28 S6        30.10F
OFFUTT AFB     SUNNY     64  34  31 E8        30.10F
MILLARD        SUNNY     62  33  33 SE7       30.10F
LINCOLN        SUNNY     66  31  27 SE7       30.10F
NEBRASKA CITY  SUNNY     64  31  29 N3        30.11F
BEATRICE       SUNNY     67  29  24 SE7       30.08F
FALLS CITY     SUNNY     67  30  25 VRB7      30.09F

...NORTHERN KANSAS...

CITY           SKY/WX    TMP DP  RH WIND       PRES   REMARKS
GOODLAND       SUNNY     75  39  27 S30G39    29.93F
HILL CITY      MOSUNNY   73  33  23 S16G32    30.00F
PHILLIPSBURG   PTSUNNY   73  27  17 SE18G28   30.01F
SMITH CENTER   CLOUDY    66  36  32 SE16G22   30.05F
BELOIT         MOSUNNY   75  30  19 S16       30.05F
HAYS           MOSUNNY   73  32  21 S20G26    30.04F
RUSSELL        CLOUDY    74  30  19 S18G28    30.04F
CONCORDIA      SUNNY     71  30  21 E12G22    30.07F
SALINA         SUNNY     74  30  19 E10       30.07F
TOPEKA         SUNNY     68  32  26 CALM      30.10F



USA.gov is the U.S. government's official web portal to all federal, state and local government web resources and services.